Koksijde, Belgium

12:58 PM CEST on April 29, 2017 (GMT +0200)
Koksijde Air Base

Weather History for EBFN - December, 2012

Change the Weather History Date:

Monday, December 17, 2012

  Actual Average Record
Temperature  
Mean Temperature 44 °F -  
Max Temperature 48 °F 42 °F 58 °F (2015)
Min Temperature 39 °F 35 °F 24 °F (1997)
Degree Days  
Heating Degree Days 22    
Moisture  
Dew Point 42 °F    
Average Humidity 92    
Maximum Humidity 100    
Minimum Humidity 76    
Precipitation  
Precipitation 0.12 in - - ()
Sea Level Pressure  
Sea Level Pressure 29.61 in    
Wind  
Wind Speed 9 mph ()    
Max Wind Speed 18 mph    
Max Gust Speed -    
Visibility 6.7 miles    
Events Rain    
Averages and records for this station are not official NWS values.
T = Trace of Precipitation, MM = Missing Value Source: Averaged Metar Reports

Daily Weather History Graph

Daily Weather History Graph

Search for Another Location

Airport or City:

Trip Planner

Search our weather history database for the weather conditions in past years. The results will help you decide how hot, cold, wet, or windy it might be!

Date:

Astronomy

Dec. 17, 2012 Rise Set
Actual Time 8:48 AM CET 4:43 PM CET
Civil Twilight 8:08 AM CET 5:22 PM CET
Nautical Twilight 7:25 AM CET 6:05 PM CET
Astronomical Twilight 6:45 AM CET 6:45 PM CET
Moon 11:21 AM CET (12/17) 10:17 PM CET (12/17)
Length of Visible Light 9h 14m
Length of Day
7h 54m
Waxing Crescent, 22% of the Moon is Illuminated
Dec 17
Waxing Crescent
Dec 20
First Quarter
Dec 28
Full
Jan 5
Last Quarter
Jan 11
New

Hourly Weather History & Observations

Time (CET) Temp. Windchill Dew Point Humidity Pressure Visibility Wind Dir Wind Speed Gust Speed Precip Events Conditions
12:25 AM 42.8 °F 38.0 °F 41.0 °F 93% 29.59 in 6.2 mi South 8.1 mph - N/A   Scattered Clouds
12:30 AM 42.8 °F 37.5 °F 41.0 °F 93% 29.59 in 6.2 mi South 9.2 mph - N/A   Scattered Clouds
12:55 AM 41.0 °F 35.8 °F 41.0 °F 100% 29.56 in 6.2 mi South 8.1 mph - N/A   Scattered Clouds
1:00 AM 42 °F - 41 °F 94% 29.59 in 15 mi South 8.9 mph - -   Partly Cloudy
1:25 AM 42.8 °F 38.0 °F 41.0 °F 93% 29.56 in 6.2 mi South 8.1 mph - N/A   Scattered Clouds
1:55 AM 42.8 °F 38.0 °F 41.0 °F 93% 29.56 in 6.2 mi SSW 8.1 mph - N/A   Mostly Cloudy
2:59 AM 44.6 °F 40.7 °F 42.8 °F 93% - 6.2 mi SSW 6.9 mph - N/A   Mostly Cloudy
3:25 AM 44.6 °F 40.2 °F 42.8 °F 93% 29.56 in 6.2 mi SSW 8.1 mph - N/A   Scattered Clouds
3:55 AM 42.8 °F 37.5 °F 42.8 °F 100% 29.56 in 6.2 mi South 9.2 mph - N/A   Scattered Clouds
4:00 AM 44 °F - 42 °F 90% 29.59 in 9 mi South 8.9 mph - -   Partly Cloudy
4:25 AM 42.8 °F 37.5 °F 41.0 °F 93% 29.56 in 6.2 mi South 9.2 mph - N/A   Scattered Clouds
4:55 AM 42.8 °F 37.0 °F 41.0 °F 93% 29.56 in 6.2 mi South 10.4 mph - N/A   Partly Cloudy
5:25 AM 42.8 °F 36.6 °F 42.8 °F 100% 29.56 in 6.2 mi South 11.5 mph - N/A   Partly Cloudy
5:55 AM 42.8 °F 36.6 °F 42.8 °F 100% 29.56 in 6.2 mi South 11.5 mph - N/A   Scattered Clouds
6:25 AM 44.6 °F 39.2 °F 42.8 °F 93% 29.56 in 6.2 mi South 10.4 mph - N/A   Scattered Clouds
7:00 AM 44 °F - 42 °F 92% 29.57 in 7 mi South 11.2 mph - - Rain Light Rain Showers
7:08 AM 44.6 °F 38.4 °F 42.8 °F 93% 29.56 in 4.3 mi SSW 12.7 mph - N/A Rain Rain Showers
7:25 AM 44.6 °F 38.4 °F 42.8 °F 93% 29.56 in 3.1 mi SW 12.7 mph - N/A Rain Rain Showers
7:34 AM 44.6 °F 39.7 °F 42.8 °F 93% 29.56 in 5.6 mi SW 9.2 mph - N/A Rain Light Rain Showers
7:55 AM 44.6 °F 39.7 °F 42.8 °F 93% 29.56 in 5.6 mi South 9.2 mph - N/A Rain Rain
8:25 AM 42.8 °F 38.0 °F 42.8 °F 100% 29.56 in 6.2 mi SSW 8.1 mph - N/A Rain Light Rain
8:56 AM 42.8 °F 37.5 °F 42.8 °F 100% 29.56 in 6.2 mi SSW 9.2 mph - N/A Rain Light Rain
9:25 AM 44.6 °F 39.2 °F 42.8 °F 93% 29.56 in 6.2 mi SSW 10.4 mph - N/A Rain Light Rain
9:55 AM 44.6 °F 38.8 °F 42.8 °F 93% 29.56 in 6.2 mi SSW 11.5 mph - N/A   Mostly Cloudy
10:00 AM 44 °F - 43 °F 93% 29.59 in 16 mi SSW 11.2 mph - - Rain Light Rain
10:25 AM 44.6 °F 38.8 °F 42.8 °F 93% 29.56 in 6.2 mi SSW 11.5 mph - N/A   Scattered Clouds
10:55 AM 44.6 °F 38.8 °F 42.8 °F 93% 29.59 in 6.2 mi SSW 11.5 mph - N/A   Mostly Cloudy
11:25 AM 44.6 °F 38.4 °F 42.8 °F 93% 29.59 in 6.2 mi SW 12.7 mph - N/A   Mostly Cloudy
11:56 AM 44.6 °F 38.4 °F 42.8 °F 93% 29.59 in 6.2 mi SW 12.7 mph - N/A   Mostly Cloudy
12:25 PM 46.4 °F 41.1 °F 44.6 °F 93% 29.59 in 6.2 mi SW 11.5 mph - N/A   Mostly Cloudy
12:55 PM 48.2 °F - 44.6 °F 87% 29.59 in 6.2 mi SW 13.8 mph - N/A   Mostly Cloudy
1:00 PM 47 °F - 44 °F 87% 29.61 in 16 mi SW 13.4 mph - -   Partly Cloudy
1:25 PM 48.2 °F - 44.6 °F 87% 29.59 in 6.2 mi WSW 11.5 mph - N/A   Mostly Cloudy
1:55 PM 48.2 °F - 42.8 °F 82% 29.59 in 6.2 mi West 16.1 mph - N/A   Mostly Cloudy
2:25 PM 48.2 °F - 42.8 °F 82% 29.62 in 6.2 mi West 16.1 mph - N/A   Mostly Cloudy
2:55 PM 48.2 °F - 41.0 °F 76% 29.62 in 6.2 mi West 13.8 mph - N/A   Mostly Cloudy
3:25 PM 48.2 °F - 41.0 °F 76% 29.62 in 6.2 mi West 17.3 mph - N/A   Mostly Cloudy
3:55 PM 48.2 °F - 41.0 °F 76% 29.62 in 6.2 mi West 16.1 mph - N/A   Scattered Clouds
4:00 PM 47 °F - 42 °F 76% 29.65 in 15 mi West 17.9 mph - -   Partly Cloudy
4:25 PM 46.4 °F 40.4 °F 41.0 °F 81% 29.65 in 6.2 mi West 13.8 mph - N/A   Scattered Clouds
4:33 PM 46.4 °F 41.1 °F 41.0 °F 81% 29.65 in 6.2 mi WSW 11.5 mph - N/A   Scattered Clouds
4:55 PM 46.4 °F 41.5 °F 41.0 °F 81% 29.65 in 6.2 mi WSW 10.4 mph - N/A   Scattered Clouds
5:25 PM 42.8 °F 38.0 °F 41.0 °F 93% 29.65 in 6.2 mi SW 8.1 mph - N/A   Scattered Clouds
5:55 PM 42.8 °F 38.0 °F 41.0 °F 93% 29.68 in 6.2 mi SW 8.1 mph - N/A   Scattered Clouds
6:25 PM 42.8 °F 37.5 °F 41.0 °F 93% 29.68 in 6.2 mi SW 9.2 mph - N/A   Scattered Clouds
6:56 PM 41.0 °F 36.4 °F 41.0 °F 100% 29.68 in 6.2 mi SW 6.9 mph - N/A   Scattered Clouds
7:00 PM 42 °F - 40 °F 92% 29.70 in 6 mi SW 6.7 mph - -   Scattered Clouds
7:25 PM 41.0 °F 36.4 °F 39.2 °F 93% 29.68 in 5.6 mi SW 6.9 mph - N/A   Clear
7:55 PM 41.0 °F 36.4 °F 39.2 °F 93% 29.71 in 5.6 mi SW 6.9 mph - N/A   Clear
8:25 PM 41.0 °F 37.1 °F 39.2 °F 93% 29.71 in 4.3 mi SSW 5.8 mph - N/A   Clear
8:55 PM 39.2 °F 34.2 °F 39.2 °F 100% 29.71 in 5.0 mi SW 6.9 mph - N/A   Clear
9:25 PM 41.0 °F 35.8 °F 39.2 °F 93% 29.71 in 5.0 mi SSW 8.1 mph - N/A   Clear
9:55 PM 39.2 °F 33.6 °F 39.2 °F 100% 29.71 in 5.6 mi SW 8.1 mph - N/A   Mostly Cloudy
10:00 PM 40 °F - 39 °F 94% 29.73 in 6 mi SW 8.9 mph - -   Clear
10:25 PM 39.2 °F 34.2 °F 39.2 °F 100% 29.71 in 5.6 mi SSW 6.9 mph - N/A   Scattered Clouds